PEGASUS DEB, 24817

Orbit data source: Space-Track

PEGASUS DEB, 24817 is space debris in LEO originally from a launch on Thu, 19 May 1994 UTC launched from the Air Force Western Test Range (AFWTR). Debris objects in space refer to the collection of defunct objects orbiting the Earth. Examples of debris include non-operational satellites, rocket bodies, and fragments generated from explosions, collisions, or faulty payload assembly.

Loading next visibility...
Identifier
24817, 1994-029ABU
Orbit
LEO
Country
Flag of USUS
Related business
Manufacturer
Unknown
Mission
Spacecraft
Bus & Motor
Unknown
Mass
Unknown
Launch date (UTC)
1994-05-19 (32 years ago)
Launch vehicle
Unknown
Launch site
Air Force Western Test Range (AFWTR)
Object type
Payload
Rocket body
Debris
Shape & HBR
Unknown shape, 0.1 m
Radar Cross Section
Small (<0.1 m²)

Expand to show TLE details & history
Last TLE update: 3 hours ago

TLE from 3 hours ago
0 PEGASUS DEB
1 24817U 94029ABU 26119.23061698  .00001880  00000-0  45939-3 0  9990
2 24817  81.6910  44.7058 0358013 226.5446 291.8125 14.19921026513738
Epoch: 2026-04-29T05:32Z
TLE epoch observation values (Epoch: 2026-04-29T05:32:05.307Z)
Latitude
25.2578°
Longitude
-79.44065°
Altitude
740.963 km
Speed
7.532 km/s
True Right ascension
14h 43m 06s
True Declination
25° 07' 30"
Sunlit
Object was in full shadow at epoch
Visualization orbit readout
Latitude
Unknown
Longitude
Unknown
Altitude
Unknown
Speed
Unknown
Apparent Right ascension
Unknown
Apparent Declination
Unknown
Sunlit
N/A
Visualization observer readout
Local Sidereal Time
16:27:32
Azimuth
Unknown
Elevation
Unknown
Doppler factor
Unknown
Orbital elements
Apogee altitude
1,080.556 km
Perigee altitude
564.953 km
Semi-major axis
7,200.891 km
Eccentricity
0.0358
Inclination
81.691°
RAAN
44.7058°
Arg. of periapsis
226.5446°
True anomaly
287.94229°
Mean anomaly
291.8125°
Eccentric anomaly
289.88352°
Mean motion
3.55192 °/min
Orbital period
101.35 mins
BSTAR
0.00045939
Loading maneuver chart data...
Computing Atmospheric mass density...
Loading historical data...
Loading historical data...
Loading historical data...
Loading historical data...
Loading historical data...
Loading historical data...
Loading historical data...

Documentation

Showing up to 5 results
|